Vorticity
2 3 2 3 3 3 3 3 4 5 7 3 6 7 13 3 -23 2 -0 -14 -1 -4 7 4 -0 1 -3 -1 -3 7 6 -4 2 3 5 20 20 13 11 6 5 5 2 1 4 4 1 1 3 5 5 6 6 5 5 5 3 6 11 11 8 9 7 4 4 6 4 3 3 5 5 5 2 3 4 6 8 7 6 6 5 5 5 6 7 7 8 9 7 6 5 5 5 5 6 6 7
2 2 2 2 2 4 2 4 5 4 8 5 5 3 15 -4 -25 13 -6 -21 3 -7 4 8 8 12 5 5 3 2 -3 -3 2 -3 -3 3 12 14 7 3 1 -0 3 6 8 5 2 2 3 5 7 8 7 5 5 5 3 5 10 10 9 9 8 4 5 6 5 3 2 4 5 5 3 3 4 6 7 6 6 5 5 5 5 6 6 7 7 9 9 8 6 6 6 6 6 6 7
2 1 -0 1 0 3 2 3 4 4 7 7 7 1 12 -1 -12 16 -12 -18 4 -11 0 4 6 15 12 13 8 3 4 6 4 4 6 -3 1 11 1 -3 1 1 1 7 11 5 4 3 3 6 8 10 8 5 5 4 3 5 10 11 10 9 9 5 5 6 5 3 2 4 5 5 3 3 4 6 7 6 6 6 6 6 5 5 6 7 7 8 8 8 8 7 7 7 6 6 6
4 2 -0 0 -1 1 1 2 2 2 4 5 7 3 9 1 1 20 -8 -19 -3 -2 2 -8 -1 7 3 13 12 10 9 7 6 7 9 -3 -5 8 3 -1 3 3 1 4 8 5 4 4 4 7 9 10 7 5 5 4 2 5 10 12 11 9 8 5 4 6 5 3 2 3 5 6 4 3 4 5 6 5 6 6 8 8 7 7 6 7 7 7 7 8 7 7 8 8 7 5 5
4 5 3 1 1 1 1 1 2 1 1 5 4 4 11 1 2 20 4 -16 -13 -1 -4 -11 6 4 -1 10 6 6 8 6 5 2 2 -5 -7 1 -5 -2 6 4 8 5 3 6 4 3 5 7 9 9 7 5 5 4 2 5 9 11 11 10 8 5 4 6 5 3 2 3 4 6 4 3 3 5 5 4 5 6 8 9 9 9 8 8 7 7 6 7 7 7 7 8 8 6 5
3 4 5 3 3 1 2 2 3 3 -1 4 3 -0 10 7 2 14 14 -1 -9 -5 -13 -14 2 4 7 8 -4 -1 5 4 6 3 -2 -7 -1 9 -1 2 9 2 6 3 -0 5 5 5 6 7 8 7 6 5 5 4 2 4 9 12 11 10 9 6 4 5 6 3 2 2 4 7 5 3 3 4 4 2 3 6 7 9 10 10 9 8 7 7 7 6 6 7 7 7 8 7 6
2 2 4 4 5 3 2 1 2 5 1 4 5 -3 4 13 7 4 12 7 -5 -3 -9 -15 -7 3 11 2 -7 -2 1 -2 2 3 1 3 5 11 14 9 6 2 3 4 3 6 7 7 6 6 5 3 5 5 5 4 2 3 9 13 12 10 9 6 4 5 6 3 1 2 3 7 6 3 3 4 3 2 2 5 7 9 10 10 10 8 7 7 7 6 6 6 6 7 7 8 7
2 1 3 1 3 3 2 3 1 4 3 3 8 0 -4 10 12 -0 3 6 -2 -2 -6 -12 -10 -1 7 2 -3 0 3 1 0 2 6 25 23 7 7 3 -0 4 4 2 4 7 6 4 4 3 1 1 3 5 5 4 3 3 10 14 12 10 9 7 4 4 6 4 1 1 3 6 7 4 3 4 2 1 2 4 6 9 10 9 10 9 7 6 7 6 6 6 6 7 6 7 7
1 1 2 0 1 2 0 2 1 3 4 2 8 6 -4 3 14 5 -1 4 4 -0 -6 -7 -9 -6 1 0 2 5 7 10 10 10 5 13 25 16 1 -3 -1 2 1 -3 0 6 3 0 1 -0 -1 -0 1 4 6 5 3 3 10 14 11 11 9 7 5 4 6 4 1 1 3 5 7 5 3 3 2 1 1 2 5 8 9 9 9 9 8 6 7 6 7 7 7 7 6 7 7
1 2 2 1 1 1 0 1 1 2 3 2 5 8 2 -2 8 13 3 -3 2 2 -1 -2 -4 -3 1 0 2 1 -1 5 10 18 16 2 8 16 5 0 2 0 3 2 5 6 -2 -1 -0 -1 1 0 1 4 5 5 3 3 9 13 12 11 9 8 5 4 6 5 2 1 2 5 6 6 4 3 2 1 1 1 3 6 8 8 9 10 9 7 6 7 6 7 6 6 6 6 7
3 3 3 2 3 3 3 2 2 2 2 3 3 7 6 0 3 12 10 -0 -5 -2 -1 -6 -1 5 1 2 4 -2 -8 -8 -4 1 11 13 9 8 4 3 3 -1 2 7 10 4 -4 -0 -0 1 3 2 3 4 5 5 3 4 9 13 12 11 9 8 6 4 6 5 2 1 2 4 6 6 5 3 2 2 2 1 1 4 7 7 9 10 10 8 6 6 6 6 6 6 7 7 7
7 6 5 4 4 4 5 5 5 5 4 4 4 6 6 5 4 5 8 11 2 -3 -2 -10 -5 6 1 1 4 4 -3 -6 -5 -15 -9 12 11 3 4 3 4 3 1 5 8 0 -4 -2 -1 3 4 4 5 4 4 5 4 4 10 13 12 11 8 7 7 5 6 6 2 1 2 4 6 6 5 4 3 2 2 1 0 1 5 7 8 9 10 9 7 6 6 6 6 6 7 8 8
9 8 8 8 7 6 6 6 6 6 8 7 6 6 5 5 7 5 3 11 14 2 -2 -5 -6 -2 -1 1 2 4 1 -1 -2 -9 -2 10 3 -1 4 3 3 5 3 5 5 -2 -5 -3 1 4 5 5 5 5 4 5 5 5 10 13 11 10 8 7 7 6 6 6 3 1 2 4 5 6 5 4 3 3 3 2 1 0 3 6 7 9 10 10 8 6 6 6 7 8 8 9 9
10 10 10 9 9 9 8 7 8 7 8 9 8 7 7 5 6 10 4 3 12 9 1 1 2 -4 -6 -2 2 4 3 3 -3 -2 7 -2 -6 -0 3 4 3 3 4 5 3 -1 -3 -0 4 4 6 6 5 5 4 5 5 5 11 13 11 9 7 8 7 7 7 5 4 2 2 4 5 5 5 4 4 3 3 3 2 0 1 3 6 7 9 10 10 8 6 6 8 8 7 8 8
13 13 11 9 8 8 9 9 8 8 8 9 10 8 8 8 7 9 9 6 3 3 1 1 9 5 -6 -4 4 6 4 4 0 9 6 -20 -12 1 0 5 3 3 3 2 3 0 -0 2 5 6 6 5 5 6 5 6 5 6 11 12 11 9 7 8 8 7 6 6 4 1 3 4 4 5 5 4 3 3 4 4 3 2 0 1 4 5 7 9 10 10 8 8 8 7 6 6 7
12 14 14 13 10 8 7 7 8 8 9 10 9 10 9 11 11 7 9 14 3 -6 -3 -0 13 15 -1 -5 3 3 1 5 6 9 -2 -21 -8 4 3 6 2 2 1 2 4 1 2 5 6 6 6 6 5 6 6 6 5 6 12 13 10 8 8 7 7 6 6 6 4 2 3 4 4 5 5 4 3 4 4 4 4 3 2 1 3 4 5 7 8 9 10 9 8 8 7 6 7
8 11 12 14 15 15 13 9 8 7 8 10 11 13 12 10 11 10 7 12 10 -4 -6 -2 14 20 1 -4 6 3 -3 5 11 6 -4 -5 4 5 5 7 3 2 1 2 3 2 5 5 7 8 7 7 6 7 6 6 6 7 12 13 9 8 8 7 7 5 5 6 3 2 3 3 5 5 5 4 4 4 4 4 4 4 3 2 1 3 4 6 7 8 9 8 8 9 8 8 9
6 7 7 9 11 15 19 19 16 12 10 10 12 14 14 11 8 9 6 8 12 4 -1 -1 12 21 3 -4 5 4 1 2 5 4 4 10 12 8 9 9 8 6 4 3 2 5 6 4 7 9 7 6 7 7 6 7 6 9 14 12 9 9 7 6 6 5 5 5 3 3 3 4 4 4 4 5 4 4 4 4 4 4 4 3 1 2 3 5 7 8 9 8 8 8 8 8 8
5 6 6 5 5 8 13 17 19 20 18 13 14 15 15 15 11 9 7 7 9 6 4 -0 6 16 5 1 5 4 3 0 3 10 15 17 13 11 12 14 14 10 8 8 6 6 5 7 10 9 8 8 8 7 6 7 7 11 14 10 8 9 8 7 5 5 5 4 4 3 3 5 4 4 4 4 5 4 4 4 5 4 4 5 2 2 3 4 6 8 9 9 8 8 7 7 6
3 5 7 4 3 5 6 9 14 19 21 21 17 12 11 14 16 13 9 7 7 4 3 -0 2 8 4 4 7 3 -1 1 10 15 15 13 9 9 13 17 17 14 14 12 10 11 11 12 12 11 10 8 7 8 8 6 8 13 12 8 9 9 8 7 6 5 4 4 3 3 4 5 4 4 4 4 5 5 5 5 5 4 5 5 3 2 3 3 4 7 9 9 9 8 7 6 6
2 4 5 4 4 5 4 5 9 12 16 22 21 12 9 10 12 10 6 6 5 0 -1 2 3 7 5 2 4 3 3 9 13 11 10 7 7 9 11 14 15 13 16 15 13 14 14 12 10 10 8 7 8 8 7 7 10 13 10 8 8 8 8 7 6 5 4 4 3 4 5 5 5 5 5 5 5 6 6 6 6 5 6 5 3 3 3 3 4 6 8 9 8 8 7 7 7
3 3 3 3 5 4 3 4 6 9 10 14 18 17 12 8 7 6 5 5 1 -2 4 6 5 10 11 8 8 7 9 12 9 7 7 6 7 8 8 9 9 10 15 19 17 10 6 7 6 7 6 6 9 8 6 7 11 12 9 8 7 8 8 6 6 6 5 5 4 4 5 5 5 5 6 6 7 7 7 7 6 5 6 5 4 3 2 2 3 5 8 9 8 7 7 7 8
4 3 3 2 4 4 3 4 3 6 8 7 9 12 14 10 5 3 2 4 -1 -4 5 10 10 14 14 15 16 13 11 6 3 5 6 6 6 6 9 8 5 7 10 12 14 11 7 7 5 4 6 7 8 7 6 7 11 11 8 7 7 7 7 7 7 7 6 5 5 6 6 6 6 6 6 7 8 8 7 6 5 6 6 5 4 3 3 2 3 5 8 9 8 7 7 6 7
8 3 3 2 3 3 2 4 2 3 6 8 7 5 12 10 3 3 1 -1 -3 1 12 18 17 13 9 9 11 14 16 12 10 13 14 11 8 9 10 7 7 10 8 5 8 12 8 7 6 3 4 6 8 6 5 9 11 9 7 6 6 6 6 7 7 8 7 7 7 8 8 7 7 7 7 7 8 8 7 6 6 7 7 5 4 4 3 2 3 6 7 8 8 7 6 6 7
12 6 5 4 4 3 2 2 2 3 2 6 7 4 9 7 2 11 11 3 4 15 23 19 12 8 7 7 8 12 17 18 11 6 9 11 12 14 9 5 6 8 12 7 3 12 12 5 4 2 3 5 6 5 6 10 11 9 7 6 5 5 5 6 8 9 8 8 8 8 8 7 7 7 7 8 8 8 7 8 8 8 7 6 5 4 3 3 4 6 7 8 8 7 6 6 6
18 11 9 8 5 4 3 2 2 3 1 2 4 4 7 4 1 11 20 17 11 15 15 9 5 7 9 7 6 9 13 17 9 -1 -1 2 3 5 6 8 6 6 14 11 3 12 15 8 2 -1 1 5 4 4 6 9 11 10 7 5 5 5 5 7 8 8 8 8 7 6 5 5 6 5 6 7 8 9 8 8 7 7 7 6 5 4 3 3 4 6 8 8 8 7 6 6 6
19 17 14 11 8 6 5 4 3 4 1 0 1 2 3 4 3 3 10 15 10 9 8 5 5 6 6 5 5 9 12 14 11 6 -0 0 5 7 9 9 7 6 8 10 9 10 14 10 3 -2 -1 4 4 3 6 10 13 10 6 6 6 6 6 7 7 7 6 5 5 5 5 5 5 6 6 7 8 7 7 8 7 8 7 6 4 3 3 4 5 7 8 9 8 8 7 7 7
14 16 16 13 9 7 6 5 5 6 4 3 2 2 1 2 5 1 1 5 6 10 8 1 1 2 5 8 6 7 12 12 11 14 17 22 20 16 14 10 10 10 11 22 14 4 13 12 4 3 0 1 4 3 8 14 13 9 7 7 7 5 5 4 4 5 4 4 5 4 5 6 6 8 7 8 11 8 6 8 8 9 7 6 4 3 3 4 6 7 9 9 8 8 7 6 7
7 11 15 17 14 9 5 5 5 5 5 4 3 3 3 2 3 3 3 3 4 7 3 -1 0 5 9 10 4 3 12 11 2 4 18 26 16 8 9 6 8 5 16 41 29 2 6 11 12 12 2 -1 5 7 11 14 11 8 8 7 6 5 4 5 5 5 6 5 6 6 7 8 8 9 7 8 12 9 7 8 8 8 6 6 5 4 4 5 7 8 9 9 8 8 7 6 7
3 5 9 15 19 17 8 5 6 4 3 4 3 6 7 5 3 3 4 5 5 4 2 -1 1 7 9 6 1 2 10 10 5 -1 -4 1 8 10 3 -2 8 8 5 27 39 14 1 16 26 17 4 1 5 9 12 12 10 8 8 7 6 6 5 6 6 6 7 7 8 8 7 7 8 9 9 13 14 7 8 9 7 7 6 6 5 4 5 5 8 9 9 10 9 8 7 7 7
1 1 3 7 15 21 16 10 6 5 6 2 2 7 9 7 8 9 9 7 4 5 6 1 0 5 6 3 2 6 11 15 21 19 5 -1 5 14 8 -3 10 23 8 9 30 15 2 22 22 7 4 2 2 8 12 11 9 7 5 5 5 5 5 5 5 6 7 8 8 7 9 12 13 9 7 15 17 9 8 9 7 7 6 6 5 4 5 7 9 9 9 10 10 9 8 8 8
0 -0 1 2 5 13 20 19 11 8 10 6 2 4 7 6 5 6 8 6 3 6 7 2 1 3 3 4 4 8 10 10 15 16 14 8 -0 5 14 5 1 17 15 11 26 16 7 17 4 -3 3 1 6 13 14 12 8 6 4 3 4 4 4 4 6 7 7 7 6 8 11 10 8 7 8 15 18 11 8 8 6 7 5 5 4 5 7 8 9 10 10 10 10 10 9 9 9
0 0 0 1 2 5 13 20 18 12 10 7 5 4 5 5 2 5 8 8 6 7 6 2 3 3 3 4 5 9 8 6 9 10 14 13 4 4 13 10 2 10 13 13 26 23 16 9 -6 1 4 -1 11 14 12 11 7 7 6 4 5 4 5 6 7 7 6 5 5 6 5 1 4 13 20 21 18 11 8 7 6 5 5 4 5 6 8 9 9 10 10 10 9 8 8 8 8
0 1 0 -0 1 2 7 16 20 19 15 10 9 8 6 5 5 9 11 11 8 6 6 4 3 2 3 4 4 11 14 10 7 6 9 13 12 8 7 9 6 10 12 8 12 10 10 5 -3 9 6 -5 7 9 5 8 7 8 8 7 7 5 5 6 6 7 6 4 5 6 4 6 11 20 25 18 10 9 9 7 5 5 5 5 6 7 9 9 9 8 8 9 8 7 7 7 7
3 2 1 1 0 1 4 11 19 23 22 17 14 12 10 8 8 9 8 10 10 8 7 6 4 2 4 6 5 8 12 11 7 2 4 10 14 10 9 13 11 11 9 6 10 4 5 6 -0 13 13 -4 1 7 5 6 7 7 8 8 7 6 7 7 7 7 4 3 6 7 7 10 12 18 17 8 6 9 9 7 4 6 5 5 7 7 8 8 7 7 7 8 8 8 7 7 7
6 4 3 3 2 1 -0 4 13 20 19 16 13 12 11 10 9 9 8 10 10 10 10 9 8 5 4 6 9 12 10 9 10 8 5 8 15 15 12 11 10 11 8 7 8 5 23 27 -0 2 11 1 2 4 3 6 7 7 8 8 7 7 8 6 6 6 3 6 7 8 10 9 10 13 1 -2 10 13 8 6 4 6 5 6 7 7 7 7 7 7 6 6 7 7 7 7 7
8 6 5 5 4 2 1 -0 4 12 13 13 14 13 10 9 11 10 8 7 8 9 10 10 10 8 6 7 10 12 10 8 10 11 11 11 15 16 13 11 11 10 9 10 2 4 40 42 -0 -7 3 0 4 4 3 6 7 8 9 8 8 7 7 7 7 5 5 7 6 8 11 6 12 12 -6 -4 14 12 6 6 5 5 5 6 7 6 6 6 5 5 5 5 5 5 5 6 6
11 9 7 7 6 3 3 -1 0 8 11 11 14 16 13 10 12 10 7 10 13 12 10 11 11 6 3 6 9 9 7 7 6 7 12 14 13 13 14 14 13 11 9 10 8 9 24 21 3 5 5 0 4 2 1 3 6 10 10 9 9 8 8 7 5 5 5 6 6 9 11 10 16 13 -3 4 15 9 6 6 5 5 6 8 7 5 5 4 4 4 4 5 4 5 4 5 5
11 11 9 8 7 4 3 -0 -0 7 9 8 10 14 15 15 16 11 5 10 16 15 12 10 11 7 4 6 7 7 7 5 4 4 7 13 14 12 14 14 9 11 11 7 10 8 3 8 12 10 6 8 10 6 3 5 8 9 9 9 9 7 6 4 4 6 4 5 8 10 13 17 17 7 2 12 13 7 7 5 5 7 8 7 4 4 4 3 4 4 5 5 4 5 5 5 5
8 10 9 9 9 5 6 4 1 6 8 7 10 13 11 10 15 11 -0 3 9 13 14 9 8 7 6 8 7 8 9 6 5 5 3 9 14 11 14 19 12 7 9 7 12 12 5 11 14 5 7 12 11 12 11 11 11 8 7 8 6 5 4 5 5 4 4 8 11 12 18 21 13 4 9 13 9 6 6 5 7 8 6 5 3 3 3 3 5 5 5 4 3 5 6 7 6
8 10 9 9 10 7 9 10 7 6 4 3 8 11 6 2 8 7 1 5 5 9 18 14 9 8 6 9 10 9 9 7 7 7 5 6 12 15 16 18 12 5 7 7 9 15 14 10 10 7 8 7 6 8 8 8 9 8 8 6 5 6 5 5 4 3 8 11 12 18 19 10 3 7 13 11 7 6 6 7 8 6 5 4 3 3 4 5 6 5 5 5 5 5 5 6 7
8 10 11 12 12 8 10 13 10 8 6 5 4 6 7 5 3 1 1 6 6 13 23 18 10 10 8 7 8 6 6 7 8 9 9 6 10 19 17 10 6 5 8 6 6 16 19 12 10 8 5 8 9 7 5 6 6 6 4 3 4 5 5 5 4 6 9 11 18 23 13 0 2 13 13 8 6 6 7 8 6 5 5 4 4 4 5 6 5 5 6 6 6 6 6 6 7
7 10 12 15 14 9 9 11 11 13 10 5 2 2 5 5 2 1 2 2 8 19 23 19 14 11 9 7 7 7 6 6 8 11 12 11 15 22 20 12 8 5 4 6 6 6 10 11 12 9 6 11 12 8 7 6 5 4 3 3 4 4 5 5 4 9 14 17 20 16 7 6 12 14 9 6 6 6 7 6 5 5 4 3 5 6 6 5 5 6 6 7 7 7 7 7 7
8 11 12 13 13 13 14 11 13 18 10 1 3 4 3 6 4 2 2 1 9 18 16 17 18 12 9 9 9 9 6 5 7 10 9 7 12 18 18 14 10 6 5 10 7 -3 0 9 10 9 8 10 11 8 7 5 6 9 9 9 8 7 8 7 10 14 13 11 9 7 7 11 12 9 7 6 6 6 6 4 4 4 4 5 6 6 5 5 6 6 6 7 7 7 8 8 8
10 12 13 13 12 17 19 14 16 19 11 4 5 3 2 7 6 3 5 4 9 11 4 12 18 11 9 8 7 7 4 6 8 7 6 6 7 9 13 14 11 10 10 12 11 3 5 9 7 7 8 8 10 5 -0 1 5 10 12 11 11 11 11 13 15 13 10 13 14 12 12 12 10 7 6 5 6 6 5 4 4 4 5 7 6 5 5 6 6 6 6 7 7 7 7 9 11
12 11 13 13 13 19 17 12 15 10 6 6 0 -2 3 7 7 7 5 0 0 -5 -10 6 15 7 7 4 3 6 5 8 8 4 6 10 14 12 9 11 13 14 12 10 12 11 11 12 7 3 5 8 8 2 2 7 11 12 10 9 11 13 14 15 12 8 15 20 13 9 11 12 10 6 5 6 6 5 4 4 5 6 7 5 5 5 6 6 6 6 7 6 5 6 9 11 12
13 9 10 11 14 18 11 7 10 1 0 2 -10 -9 -0 -0 1 1 -1 -1 -2 -3 1 14 16 9 11 8 5 8 9 11 7 1 -0 6 21 24 11 8 12 14 14 13 15 14 14 13 6 2 7 9 7 6 11 15 15 14 11 10 13 14 12 10 6 7 14 8 -3 3 12 12 8 5 5 5 4 4 5 6 6 6 5 5 6 6 6 7 6 6 5 4 6 11 13 12 11
12 8 8 11 14 15 7 3 4 -4 -2 2 -1 1 -1 -5 -1 -2 3 8 4 13 24 16 8 9 12 10 9 9 12 18 13 4 4 11 27 31 19 12 6 4 11 15 16 15 13 8 4 7 11 9 9 11 9 6 7 10 13 14 13 9 6 4 3 9 12 -0 -7 5 12 9 6 5 5 4 4 5 5 6 6 5 5 6 6 6 6 7 5 4 4 7 12 14 13 11 9
10 8 7 11 11 9 7 2 -1 -5 -1 5 8 12 2 -4 4 1 3 16 24 39 37 9 -3 1 1 0 4 5 9 18 20 13 10 18 33 35 28 25 10 -4 2 7 7 11 12 8 6 8 10 11 12 7 1 5 12 12 11 13 11 7 4 4 7 13 11 -2 -3 8 11 8 6 4 5 5 5 5 5 6 6 5 6 6 6 6 6 4 3 4 7 12 15 13 10 9 8
9 8 6 8 5 3 7 7 3 -2 1 3 1 3 1 -1 4 2 4 19 32 34 20 3 2 4 3 3 2 4 8 8 14 17 9 15 30 28 21 27 20 2 1 4 4 7 9 10 9 8 11 14 8 0 5 18 22 14 8 10 9 5 6 9 14 15 7 -0 4 11 10 7 5 5 5 5 4 5 5 5 6 6 7 7 6 6 4 2 4 6 10 15 14 10 8 7 7
11 11 8 6 4 3 7 9 7 1 1 4 2 -0 -0 0 2 4 8 10 6 2 1 4 7 4 8 11 7 11 12 2 5 14 10 12 23 17 6 13 15 9 8 7 5 7 10 12 11 11 15 12 2 3 13 18 17 14 10 8 5 7 12 15 14 11 6 7 12 12 8 7 6 5 4 4 5 6 6 6 7 7 7 7 6 4 2 3 6 10 13 14 10 7 7 7 7
13 11 5 3 6 7 6 5 5 5 4 4 6 3 2 7 7 6 10 7 -1 -2 1 0 0 5 13 10 8 17 18 8 7 14 14 16 25 20 5 2 9 15 18 12 4 4 9 14 16 16 15 10 6 9 11 9 12 18 14 7 8 12 12 9 7 7 8 10 10 9 8 7 5 4 4 5 6 6 6 7 7 7 7 6 4 2 3 5 8 12 13 11 7 6 7 7 7
14 8 4 9 13 6 3 5 3 5 8 5 4 2 0 6 4 -0 5 11 14 14 6 -0 4 16 20 8 7 19 18 11 12 15 14 13 16 14 7 9 17 21 19 13 6 2 6 13 16 15 12 8 9 9 7 7 12 17 15 12 12 8 1 2 6 8 9 7 7 7 7 5 4 5 5 6 6 5 7 8 7 7 6 4 2 3 5 8 10 11 11 8 6 6 7 6 7
12 9 11 16 13 1 -1 6 5 3 4 4 5 0 -1 8 9 5 4 4 8 12 8 3 2 10 16 8 8 18 14 6 7 10 11 10 11 14 14 14 10 5 5 9 10 8 9 13 13 11 10 8 9 9 7 9 12 14 16 13 6 -2 -1 6 9 8 8 8 7 7 6 5 5 6 5 6 6 6 7 8 7 6 4 3 3 5 7 9 9 10 9 7 6 7 6 6 6
10 13 16 13 9 6 2 2 4 5 1 -1 5 2 -1 9 12 6 4 3 1 3 4 -1 -5 5 16 11 8 13 11 8 6 5 8 12 14 16 13 6 -2 -4 2 8 11 11 12 13 12 10 9 8 9 9 7 7 9 12 12 5 -3 -1 7 11 9 8 10 8 7 7 7 7 7 6 6 6 6 8 7 6 6 5 4 4 5 7 8 8 8 8 7 6 7 7 6 6 6
8 13 14 11 11 10 7 2 1 6 5 -2 2 2 -7 -1 10 6 3 8 6 -1 -2 -4 -3 12 20 10 2 3 5 7 8 8 9 10 11 11 7 3 2 2 5 8 8 11 14 13 12 12 11 11 10 7 6 7 8 9 6 -0 -0 7 12 11 9 10 10 8 8 8 7 7 7 6 6 6 7 7 5 5 5 4 4 5 7 9 8 7 7 6 6 7 7 6 6 6 5
7 11 10 10 12 9 9 13 8 4 6 1 -3 -1 -8 -11 3 7 0 7 11 2 -6 -6 2 16 15 -2 -9 -0 9 10 7 8 11 10 9 9 6 5 6 5 7 9 7 10 14 13 12 14 12 10 6 1 1 5 6 7 5 3 6 10 10 9 9 9 8 9 8 7 8 8 6 5 6 7 7 5 4 5 5 5 6 7 8 9 7 7 6 5 6 7 7 6 6 6 5
8 12 12 8 9 7 2 12 19 11 8 8 -1 -3 -2 -8 -4 2 -1 2 6 -0 -7 -4 5 10 1 -15 -15 2 17 20 16 10 7 7 5 5 6 6 8 8 8 9 7 9 15 11 5 5 6 4 1 -1 2 6 8 7 7 7 9 10 9 8 7 7 8 8 8 8 8 7 5 6 7 6 4 4 5 6 5 6 8 8 9 10 7 6 6 5 6 7 6 6 6 5 6
Height
5868 5869 5870 5872 5873 5874 5875 5876 5877 5878 5879 5881 5885 5889 5890 5891 5891 5890 5890 5891 5891 5891 5892 5892 5892 5891 5891 5891 5891 5892 5893 5893 5894 5895 5896 5896 5894 5895 5896 5895 5895 5895 5894 5894 5893 5893 5893 5893 5893 5892 5892 5890 5889 5887 5886 5885 5884 5884 5883 5882 5881 5881 5881 5881 5881 5880 5879 5878 5876 5875 5874 5874 5873 5872 5871 5870 5869 5868 5867 5867 5866 5865 5864 5863 5861 5860 5859 5858 5857 5856 5855 5854 5853 5852 5851 5850 5849
5866 5867 5868 5870 5871 5873 5873 5874 5875 5876 5877 5879 5883 5887 5888 5890 5889 5888 5889 5889 5889 5890 5891 5891 5891 5891 5891 5890 5890 5891 5891 5892 5893 5894 5895 5895 5893 5894 5895 5894 5894 5894 5894 5893 5893 5892 5892 5892 5892 5892 5891 5890 5889 5887 5886 5885 5884 5883 5882 5882 5881 5880 5880 5881 5881 5880 5879 5877 5876 5875 5874 5874 5873 5872 5871 5871 5870 5869 5868 5867 5866 5865 5864 5863 5861 5860 5859 5858 5857 5856 5855 5854 5853 5852 5851 5850 5849
5863 5865 5866 5867 5869 5870 5870 5871 5872 5873 5875 5877 5881 5885 5887 5888 5886 5886 5888 5886 5886 5888 5888 5889 5890 5890 5889 5889 5888 5889 5890 5891 5892 5893 5894 5894 5893 5893 5894 5894 5893 5893 5893 5893 5892 5892 5891 5891 5891 5891 5891 5890 5888 5887 5886 5885 5884 5883 5882 5881 5880 5880 5880 5880 5880 5879 5878 5877 5876 5875 5874 5873 5873 5872 5872 5871 5870 5869 5868 5867 5866 5865 5864 5863 5861 5860 5859 5858 5857 5856 5855 5854 5853 5852 5851 5850 5849
5860 5862 5863 5865 5867 5867 5868 5868 5870 5870 5872 5876 5879 5882 5884 5886 5885 5885 5887 5884 5882 5883 5883 5885 5886 5887 5886 5886 5886 5887 5888 5889 5890 5891 5892 5893 5893 5893 5893 5893 5892 5892 5892 5892 5891 5891 5891 5891 5890 5890 5890 5889 5888 5887 5885 5885 5883 5882 5882 5881 5880 5879 5879 5879 5879 5878 5877 5876 5875 5874 5874 5873 5873 5872 5872 5871 5870 5869 5868 5867 5866 5865 5864 5863 5861 5860 5859 5858 5857 5856 5854 5853 5852 5851 5850 5850 5849
5857 5859 5860 5862 5863 5864 5864 5864 5867 5868 5870 5874 5877 5880 5882 5884 5884 5883 5885 5882 5879 5879 5879 5879 5882 5883 5883 5884 5884 5885 5886 5886 5888 5889 5890 5891 5892 5892 5892 5892 5891 5890 5890 5891 5890 5890 5890 5890 5889 5889 5889 5888 5887 5886 5885 5884 5883 5882 5881 5881 5880 5879 5879 5879 5878 5877 5876 5875 5875 5874 5873 5873 5872 5872 5871 5871 5870 5869 5868 5867 5866 5865 5864 5862 5861 5860 5859 5858 5857 5856 5854 5853 5852 5851 5850 5849 5849
5854 5856 5857 5859 5860 5860 5860 5860 5863 5865 5869 5872 5874 5879 5880 5882 5882 5882 5883 5881 5879 5878 5877 5876 5878 5880 5881 5882 5882 5883 5884 5885 5886 5887 5888 5889 5890 5891 5890 5890 5890 5889 5889 5889 5890 5890 5889 5889 5888 5888 5888 5887 5887 5886 5885 5884 5882 5881 5881 5880 5879 5878 5878 5878 5877 5877 5876 5875 5874 5873 5873 5872 5872 5872 5871 5871 5870 5869 5868 5867 5866 5865 5863 5862 5861 5860 5859 5858 5857 5855 5854 5853 5852 5851 5850 5849 5848
5852 5853 5854 5856 5856 5856 5856 5857 5860 5863 5867 5869 5872 5876 5877 5880 5881 5880 5881 5879 5879 5878 5875 5875 5875 5876 5879 5881 5881 5881 5883 5884 5885 5885 5886 5888 5889 5889 5889 5889 5889 5889 5888 5888 5888 5888 5888 5888 5887 5887 5887 5887 5886 5885 5884 5883 5882 5881 5880 5880 5879 5878 5878 5877 5877 5876 5875 5874 5873 5873 5873 5872 5872 5871 5871 5870 5870 5869 5868 5867 5866 5865 5863 5862 5861 5860 5859 5858 5857 5855 5854 5853 5852 5851 5850 5849 5848
5849 5850 5850 5852 5852 5852 5852 5854 5857 5861 5864 5866 5869 5873 5875 5878 5879 5879 5878 5878 5878 5877 5874 5873 5874 5874 5876 5878 5879 5880 5882 5883 5884 5885 5886 5886 5887 5888 5888 5887 5887 5887 5887 5887 5887 5887 5887 5886 5886 5886 5886 5886 5885 5884 5884 5882 5881 5880 5880 5879 5878 5877 5877 5876 5876 5875 5874 5874 5873 5873 5872 5872 5871 5871 5870 5870 5869 5868 5868 5867 5866 5865 5863 5862 5861 5860 5859 5857 5856 5855 5854 5853 5852 5851 5850 5849 5848
5846 5846 5847 5849 5849 5848 5849 5851 5854 5858 5862 5864 5866 5871 5873 5875 5877 5877 5877 5876 5876 5875 5871 5871 5872 5872 5873 5874 5877 5878 5880 5882 5883 5885 5885 5885 5885 5886 5886 5885 5885 5886 5886 5886 5886 5886 5885 5885 5885 5885 5885 5885 5884 5884 5883 5882 5881 5880 5879 5878 5877 5876 5876 5876 5875 5874 5874 5873 5872 5872 5872 5871 5871 5870 5870 5869 5869 5868 5868 5867 5866 5865 5863 5862 5861 5859 5858 5857 5856 5855 5854 5853 5852 5851 5850 5849 5848
5842 5843 5843 5844 5844 5844 5845 5847 5851 5855 5859 5862 5864 5867 5870 5872 5873 5875 5875 5874 5874 5872 5869 5869 5869 5870 5871 5871 5873 5875 5878 5881 5883 5884 5884 5884 5884 5884 5884 5884 5883 5883 5884 5884 5884 5884 5884 5884 5883 5884 5884 5884 5883 5883 5882 5881 5880 5879 5878 5877 5876 5876 5875 5875 5874 5873 5873 5872 5872 5871 5871 5871 5870 5870 5869 5869 5868 5868 5867 5867 5866 5864 5863 5862 5860 5859 5858 5857 5856 5855 5854 5853 5852 5851 5850 5849 5847
5837 5839 5840 5839 5839 5840 5842 5846 5849 5853 5857 5859 5860 5864 5867 5869 5870 5871 5872 5872 5872 5869 5867 5867 5867 5868 5869 5869 5870 5871 5875 5880 5881 5881 5882 5883 5883 5883 5882 5882 5881 5882 5882 5882 5882 5883 5882 5882 5882 5882 5882 5882 5882 5881 5880 5879 5878 5877 5877 5876 5875 5875 5874 5874 5873 5872 5872 5871 5871 5871 5871 5870 5870 5869 5869 5868 5868 5867 5867 5866 5865 5864 5863 5862 5860 5859 5857 5856 5855 5854 5853 5853 5852 5851 5850 5848 5847
5832 5835 5836 5834 5835 5837 5840 5843 5846 5849 5852 5854 5856 5861 5865 5866 5866 5868 5870 5870 5869 5865 5863 5865 5864 5866 5867 5867 5867 5868 5873 5876 5878 5879 5881 5882 5882 5881 5880 5880 5880 5880 5880 5881 5881 5881 5881 5881 5881 5881 5881 5881 5881 5880 5879 5878 5877 5876 5876 5875 5874 5874 5873 5873 5872 5871 5871 5870 5870 5870 5870 5870 5869 5869 5868 5868 5867 5867 5866 5866 5865 5864 5863 5861 5860 5858 5857 5856 5855 5854 5853 5852 5851 5850 5849 5848 5847
5828 5831 5832 5830 5832 5834 5837 5838 5841 5845 5847 5850 5854 5859 5862 5863 5863 5865 5866 5866 5866 5861 5860 5861 5862 5864 5864 5864 5864 5866 5870 5872 5874 5877 5880 5881 5881 5880 5879 5878 5878 5878 5878 5879 5879 5879 5879 5879 5879 5879 5880 5880 5879 5878 5877 5876 5876 5875 5875 5874 5873 5873 5872 5871 5871 5870 5870 5869 5869 5869 5869 5869 5868 5868 5868 5867 5867 5867 5866 5865 5865 5864 5863 5861 5860 5858 5857 5856 5855 5854 5853 5852 5851 5850 5849 5848 5847
5825 5827 5827 5826 5828 5831 5832 5834 5838 5840 5843 5848 5852 5856 5859 5860 5861 5861 5862 5863 5863 5859 5858 5858 5859 5862 5862 5860 5862 5865 5866 5867 5872 5875 5878 5878 5878 5878 5877 5876 5876 5876 5876 5877 5877 5877 5877 5877 5877 5878 5878 5878 5878 5877 5876 5875 5875 5874 5874 5873 5872 5872 5871 5870 5869 5869 5868 5868 5868 5868 5868 5868 5867 5867 5867 5867 5866 5866 5866 5865 5865 5864 5862 5861 5860 5858 5857 5856 5855 5854 5853 5852 5851 5850 5848 5847 5846
5821 5822 5822 5822 5824 5827 5828 5831 5834 5836 5840 5846 5850 5853 5855 5857 5858 5858 5859 5860 5860 5857 5857 5856 5857 5861 5860 5859 5861 5862 5862 5865 5869 5872 5873 5874 5875 5876 5875 5874 5874 5874 5874 5875 5875 5875 5875 5875 5876 5876 5877 5877 5876 5875 5875 5874 5874 5873 5873 5872 5871 5870 5870 5869 5868 5868 5867 5867 5867 5867 5867 5867 5867 5866 5866 5866 5865 5865 5865 5864 5864 5863 5862 5861 5860 5858 5857 5856 5855 5853 5852 5851 5850 5849 5848 5847 5846
5816 5817 5818 5818 5820 5823 5825 5829 5832 5834 5838 5844 5847 5850 5852 5853 5854 5855 5856 5856 5856 5854 5854 5853 5854 5859 5859 5857 5859 5859 5859 5862 5866 5868 5869 5871 5872 5872 5872 5872 5872 5872 5872 5873 5873 5873 5873 5873 5874 5874 5875 5875 5874 5873 5873 5873 5873 5872 5872 5871 5870 5869 5868 5867 5867 5866 5866 5866 5866 5867 5866 5866 5866 5865 5865 5864 5864 5864 5864 5863 5863 5863 5862 5861 5860 5858 5857 5856 5854 5853 5852 5851 5850 5849 5848 5846 5845
5812 5813 5814 5815 5817 5820 5824 5828 5830 5832 5837 5841 5843 5845 5847 5849 5849 5850 5852 5851 5851 5849 5850 5850 5850 5855 5857 5855 5856 5856 5857 5860 5863 5864 5865 5867 5868 5869 5869 5870 5869 5869 5870 5870 5870 5871 5871 5871 5871 5872 5872 5872 5872 5872 5872 5872 5871 5871 5870 5870 5869 5868 5867 5866 5866 5865 5865 5866 5866 5866 5866 5865 5865 5864 5864 5863 5863 5862 5862 5862 5862 5862 5861 5860 5859 5858 5857 5856 5854 5853 5852 5850 5849 5848 5847 5846 5845
5807 5810 5811 5812 5817 5820 5823 5826 5827 5830 5834 5837 5839 5840 5842 5844 5844 5845 5847 5847 5846 5844 5845 5845 5847 5852 5855 5853 5853 5854 5855 5857 5860 5860 5862 5863 5865 5866 5867 5867 5867 5867 5868 5868 5868 5868 5867 5868 5869 5869 5869 5870 5869 5870 5870 5870 5870 5869 5869 5868 5867 5866 5866 5865 5865 5865 5865 5865 5865 5865 5865 5864 5864 5863 5863 5862 5862 5861 5861 5861 5861 5860 5860 5859 5858 5857 5856 5855 5854 5853 5851 5850 5849 5847 5846 5845 5844
5804 5807 5808 5811 5816 5819 5821 5822 5824 5826 5830 5834 5834 5835 5838 5840 5840 5841 5843 5844 5841 5841 5840 5841 5846 5852 5853 5851 5850 5851 5851 5854 5856 5857 5859 5861 5862 5862 5864 5865 5864 5865 5865 5865 5864 5864 5864 5865 5865 5866 5867 5867 5867 5868 5868 5868 5868 5868 5867 5867 5866 5865 5865 5864 5864 5864 5865 5864 5864 5864 5863 5863 5863 5862 5862 5861 5861 5860 5860 5860 5859 5859 5859 5858 5857 5856 5855 5854 5853 5852 5851 5850 5849 5847 5846 5844 5843
5801 5804 5805 5810 5815 5816 5818 5819 5821 5824 5826 5830 5830 5832 5835 5836 5837 5837 5839 5839 5837 5838 5838 5840 5847 5850 5849 5848 5846 5846 5847 5850 5853 5855 5857 5858 5858 5859 5861 5861 5861 5861 5861 5859 5859 5859 5860 5861 5862 5863 5864 5865 5866 5866 5866 5866 5866 5866 5865 5865 5865 5864 5864 5864 5864 5864 5864 5863 5863 5862 5863 5863 5862 5862 5861 5860 5860 5859 5859 5859 5858 5858 5857 5856 5856 5855 5854 5853 5852 5851 5850 5849 5848 5847 5845 5844 5842
5798 5801 5804 5809 5811 5812 5815 5817 5819 5821 5822 5825 5827 5829 5830 5830 5831 5832 5834 5835 5833 5835 5837 5840 5845 5846 5845 5844 5843 5842 5844 5847 5850 5854 5855 5855 5855 5856 5856 5857 5857 5857 5856 5855 5855 5855 5857 5858 5860 5861 5862 5863 5864 5864 5864 5864 5864 5864 5864 5863 5863 5863 5863 5863 5863 5863 5862 5862 5862 5862 5862 5862 5862 5861 5861 5860 5859 5859 5858 5858 5857 5857 5856 5855 5854 5853 5852 5851 5850 5849 5849 5848 5847 5846 5845 5843 5842
5795 5799 5803 5805 5807 5810 5813 5814 5816 5818 5819 5820 5823 5824 5825 5825 5826 5827 5829 5830 5831 5834 5836 5839 5843 5843 5843 5843 5840 5840 5843 5845 5847 5851 5853 5852 5852 5852 5852 5852 5853 5853 5852 5852 5853 5854 5856 5857 5859 5860 5860 5861 5862 5862 5862 5862 5862 5862 5862 5862 5862 5862 5862 5862 5862 5861 5861 5861 5861 5861 5861 5861 5861 5860 5860 5859 5859 5858 5857 5857 5856 5855 5854 5854 5853 5852 5851 5850 5849 5848 5847 5846 5845 5844 5843 5842 5841
5792 5796 5799 5801 5804 5808 5810 5812 5814 5815 5815 5817 5819 5820 5820 5821 5823 5823 5826 5828 5830 5834 5836 5838 5840 5840 5840 5841 5839 5839 5842 5844 5846 5849 5849 5848 5848 5847 5847 5848 5848 5848 5849 5850 5851 5852 5854 5856 5857 5858 5859 5860 5860 5861 5861 5861 5861 5860 5860 5861 5861 5861 5861 5860 5860 5860 5860 5861 5861 5861 5860 5860 5859 5859 5858 5858 5857 5857 5857 5856 5856 5855 5854 5853 5852 5851 5850 5849 5848 5847 5846 5845 5844 5843 5842 5841 5840
5788 5792 5795 5798 5801 5804 5807 5809 5810 5812 5813 5815 5816 5816 5816 5818 5820 5821 5824 5826 5828 5831 5835 5837 5837 5836 5837 5838 5837 5837 5840 5842 5843 5844 5843 5843 5842 5842 5843 5845 5845 5844 5845 5846 5848 5850 5852 5854 5856 5857 5858 5859 5859 5859 5859 5859 5859 5859 5859 5860 5860 5859 5859 5859 5859 5859 5860 5860 5860 5860 5860 5859 5859 5858 5857 5856 5856 5856 5856 5856 5855 5854 5853 5852 5851 5850 5849 5848 5847 5846 5844 5843 5842 5841 5840 5840 5839
5783 5788 5791 5794 5798 5801 5804 5806 5807 5809 5811 5812 5812 5814 5814 5815 5817 5820 5823 5825 5825 5829 5834 5834 5833 5832 5833 5834 5835 5836 5838 5838 5838 5838 5838 5837 5837 5838 5840 5842 5841 5841 5841 5843 5845 5847 5849 5851 5854 5855 5857 5858 5857 5857 5857 5857 5857 5858 5858 5858 5858 5857 5857 5858 5858 5859 5859 5859 5859 5858 5858 5858 5857 5857 5856 5856 5855 5855 5855 5854 5854 5853 5852 5851 5850 5849 5848 5846 5845 5844 5843 5842 5841 5840 5839 5838 5837
5779 5784 5787 5790 5794 5796 5800 5803 5804 5805 5807 5808 5808 5811 5812 5813 5815 5819 5822 5823 5824 5828 5830 5829 5829 5829 5829 5830 5832 5833 5832 5831 5831 5831 5831 5832 5832 5834 5838 5840 5840 5838 5839 5840 5841 5843 5846 5848 5851 5853 5854 5855 5855 5855 5855 5855 5856 5856 5856 5856 5856 5856 5856 5857 5857 5857 5858 5857 5856 5856 5856 5856 5856 5855 5855 5854 5854 5854 5853 5853 5853 5852 5851 5850 5849 5848 5847 5846 5845 5844 5842 5841 5840 5839 5838 5837 5836
5777 5780 5783 5785 5789 5792 5795 5799 5801 5801 5803 5804 5805 5807 5810 5811 5812 5818 5822 5821 5822 5826 5827 5825 5825 5826 5826 5827 5828 5827 5825 5825 5826 5827 5828 5829 5829 5833 5838 5839 5838 5837 5837 5838 5838 5840 5843 5846 5848 5850 5851 5852 5852 5852 5853 5854 5854 5854 5854 5855 5855 5855 5856 5856 5856 5856 5856 5855 5854 5854 5854 5854 5854 5854 5854 5853 5853 5853 5852 5852 5852 5852 5851 5850 5849 5848 5847 5846 5845 5843 5842 5841 5840 5839 5838 5838 5836
5773 5775 5777 5780 5783 5786 5790 5794 5797 5798 5799 5801 5803 5805 5807 5808 5810 5817 5820 5819 5819 5822 5822 5821 5821 5822 5822 5823 5824 5823 5823 5825 5827 5829 5831 5831 5831 5834 5838 5837 5837 5837 5837 5837 5836 5838 5842 5844 5846 5847 5848 5849 5850 5850 5851 5852 5853 5853 5854 5854 5854 5854 5854 5854 5854 5854 5854 5853 5853 5853 5853 5853 5853 5853 5853 5852 5852 5851 5851 5851 5851 5851 5850 5850 5849 5848 5847 5845 5844 5843 5842 5840 5839 5838 5838 5837 5836
5769 5771 5773 5775 5778 5781 5785 5790 5793 5794 5796 5798 5800 5802 5805 5806 5810 5814 5816 5817 5817 5818 5818 5816 5816 5817 5818 5822 5824 5823 5824 5825 5825 5828 5830 5830 5830 5833 5835 5835 5836 5837 5837 5837 5836 5837 5841 5842 5842 5842 5844 5847 5848 5848 5850 5851 5852 5853 5853 5853 5853 5853 5852 5852 5852 5852 5852 5851 5851 5852 5852 5852 5852 5851 5851 5850 5850 5850 5849 5849 5849 5849 5849 5849 5848 5847 5846 5844 5843 5842 5841 5839 5838 5837 5836 5835 5834
5765 5767 5769 5772 5773 5776 5781 5785 5788 5790 5792 5795 5796 5798 5803 5806 5808 5811 5813 5815 5815 5814 5813 5810 5812 5815 5818 5821 5823 5822 5822 5822 5822 5825 5826 5825 5827 5828 5830 5831 5832 5833 5834 5835 5834 5836 5839 5839 5837 5838 5841 5844 5846 5847 5848 5849 5850 5851 5851 5852 5851 5851 5851 5850 5850 5850 5850 5850 5850 5851 5851 5850 5850 5849 5849 5848 5849 5848 5848 5848 5848 5848 5848 5847 5846 5845 5844 5843 5842 5841 5839 5838 5837 5835 5834 5833 5832
5762 5763 5765 5767 5769 5772 5778 5782 5785 5787 5789 5792 5793 5796 5801 5804 5806 5809 5811 5812 5812 5810 5808 5807 5810 5814 5817 5819 5819 5819 5820 5819 5819 5821 5821 5821 5823 5825 5826 5827 5828 5830 5831 5831 5831 5833 5835 5834 5832 5835 5838 5841 5844 5845 5846 5847 5848 5848 5849 5849 5849 5849 5849 5849 5849 5848 5848 5849 5849 5849 5849 5848 5848 5848 5847 5847 5847 5847 5847 5847 5847 5847 5847 5846 5845 5844 5843 5842 5840 5839 5838 5837 5836 5834 5833 5832 5831
5758 5759 5760 5764 5766 5770 5776 5779 5782 5785 5787 5789 5789 5793 5798 5801 5803 5807 5809 5809 5808 5806 5805 5806 5809 5812 5815 5816 5815 5816 5817 5817 5816 5816 5817 5818 5820 5822 5822 5824 5826 5827 5828 5829 5829 5831 5832 5831 5831 5833 5835 5839 5842 5843 5844 5845 5845 5846 5846 5847 5848 5848 5847 5847 5847 5847 5847 5848 5848 5848 5847 5847 5847 5846 5846 5846 5846 5845 5845 5846 5846 5846 5845 5845 5843 5842 5841 5840 5839 5838 5837 5835 5834 5832 5831 5830 5829
5753 5754 5757 5762 5765 5769 5773 5776 5779 5782 5785 5786 5786 5790 5795 5798 5801 5803 5804 5805 5805 5803 5803 5805 5807 5809 5812 5813 5812 5814 5816 5815 5814 5814 5815 5816 5818 5819 5819 5822 5824 5825 5826 5827 5828 5829 5830 5831 5832 5833 5835 5838 5840 5841 5842 5843 5844 5844 5845 5846 5846 5846 5846 5846 5845 5845 5846 5846 5846 5846 5846 5846 5845 5845 5845 5844 5844 5844 5844 5844 5844 5845 5844 5843 5842 5841 5840 5839 5838 5837 5836 5834 5832 5831 5830 5829 5828
5748 5751 5755 5760 5764 5768 5772 5775 5777 5780 5782 5784 5784 5787 5792 5795 5797 5798 5799 5801 5802 5801 5801 5802 5804 5806 5808 5810 5811 5812 5813 5813 5812 5812 5813 5814 5815 5816 5818 5820 5822 5823 5824 5825 5826 5828 5829 5831 5832 5834 5835 5836 5838 5839 5840 5840 5842 5843 5844 5844 5844 5844 5844 5844 5844 5844 5844 5844 5845 5845 5844 5844 5844 5843 5843 5843 5843 5843 5843 5843 5843 5843 5842 5842 5841 5840 5839 5838 5837 5836 5835 5833 5831 5830 5828 5827 5826
5746 5749 5753 5759 5764 5768 5771 5774 5776 5778 5779 5782 5782 5784 5789 5792 5792 5794 5796 5798 5799 5799 5799 5799 5801 5803 5805 5807 5809 5810 5810 5809 5810 5810 5810 5812 5813 5814 5816 5819 5820 5820 5821 5823 5825 5826 5828 5829 5831 5832 5833 5834 5835 5836 5837 5838 5839 5841 5842 5842 5843 5843 5842 5842 5842 5842 5843 5843 5844 5844 5843 5842 5842 5842 5841 5842 5843 5842 5842 5842 5841 5841 5841 5840 5839 5839 5838 5837 5835 5834 5833 5832 5830 5829 5827 5826 5825
5745 5749 5753 5758 5763 5766 5770 5773 5774 5776 5777 5778 5779 5781 5786 5788 5788 5792 5794 5795 5796 5795 5796 5798 5799 5801 5803 5805 5805 5806 5807 5807 5807 5808 5808 5809 5810 5811 5814 5816 5817 5818 5819 5821 5823 5824 5825 5826 5829 5830 5830 5831 5832 5833 5834 5836 5837 5838 5839 5840 5840 5840 5840 5840 5840 5841 5841 5842 5842 5842 5842 5841 5841 5841 5841 5841 5842 5841 5840 5840 5840 5839 5839 5839 5838 5837 5836 5835 5834 5833 5832 5830 5829 5828 5826 5825 5824
5743 5746 5751 5756 5760 5763 5767 5770 5773 5774 5773 5775 5777 5779 5783 5784 5784 5788 5790 5791 5792 5792 5794 5796 5797 5799 5800 5802 5803 5803 5804 5805 5806 5806 5807 5808 5808 5809 5811 5814 5815 5817 5818 5819 5820 5821 5821 5823 5826 5827 5828 5829 5829 5830 5832 5833 5835 5836 5837 5838 5838 5838 5838 5838 5839 5839 5840 5840 5840 5840 5841 5841 5840 5840 5840 5840 5840 5839 5839 5839 5839 5838 5838 5837 5837 5836 5835 5834 5833 5831 5830 5829 5828 5826 5825 5823 5822
5740 5743 5748 5753 5756 5760 5765 5768 5770 5771 5770 5773 5776 5777 5780 5780 5782 5785 5786 5788 5789 5789 5791 5793 5795 5796 5798 5799 5800 5801 5802 5803 5804 5805 5805 5806 5806 5807 5809 5811 5813 5814 5816 5816 5817 5818 5820 5821 5823 5824 5825 5826 5827 5828 5830 5831 5833 5834 5835 5836 5837 5837 5836 5836 5837 5838 5838 5838 5838 5838 5838 5839 5838 5838 5839 5839 5838 5838 5838 5838 5838 5837 5836 5836 5835 5834 5833 5832 5831 5830 5829 5827 5826 5825 5823 5821 5820
5736 5740 5744 5749 5753 5757 5761 5764 5766 5766 5766 5770 5773 5775 5777 5778 5779 5781 5783 5784 5785 5787 5788 5790 5792 5794 5796 5797 5798 5799 5800 5802 5802 5803 5803 5804 5804 5805 5806 5809 5811 5812 5813 5814 5815 5816 5818 5819 5820 5822 5823 5823 5824 5826 5828 5829 5830 5831 5833 5834 5835 5835 5835 5835 5835 5835 5835 5835 5835 5836 5836 5836 5836 5837 5837 5837 5836 5837 5837 5837 5836 5835 5835 5834 5833 5832 5831 5831 5829 5828 5826 5825 5824 5822 5821 5820 5819
5731 5736 5740 5745 5750 5754 5758 5762 5764 5763 5764 5768 5771 5772 5774 5774 5775 5777 5779 5781 5783 5785 5786 5788 5790 5792 5794 5795 5795 5796 5798 5799 5800 5800 5801 5802 5802 5802 5803 5806 5808 5809 5811 5812 5813 5814 5815 5816 5817 5819 5820 5821 5822 5824 5825 5827 5828 5829 5831 5832 5833 5833 5833 5833 5833 5833 5833 5833 5833 5833 5833 5834 5834 5835 5836 5836 5836 5836 5836 5836 5835 5834 5833 5832 5831 5831 5830 5828 5827 5826 5824 5822 5821 5820 5819 5818 5817
5728 5732 5737 5743 5748 5752 5757 5760 5761 5760 5762 5765 5767 5768 5769 5770 5771 5773 5776 5779 5781 5783 5784 5786 5788 5790 5792 5793 5793 5795 5796 5797 5798 5798 5799 5800 5800 5800 5801 5803 5805 5807 5808 5810 5811 5812 5814 5814 5815 5817 5818 5819 5820 5821 5823 5825 5826 5827 5829 5830 5831 5831 5831 5831 5831 5830 5830 5831 5831 5831 5832 5832 5833 5834 5834 5834 5835 5835 5835 5834 5833 5833 5831 5830 5830 5829 5827 5826 5825 5824 5822 5820 5819 5817 5816 5815 5815
5726 5730 5735 5741 5746 5751 5755 5756 5757 5757 5759 5761 5763 5764 5766 5767 5769 5770 5773 5776 5779 5781 5783 5785 5786 5788 5790 5791 5791 5792 5794 5795 5796 5797 5797 5798 5800 5800 5801 5802 5803 5804 5806 5808 5809 5811 5812 5813 5814 5815 5816 5817 5818 5819 5820 5822 5824 5825 5827 5828 5829 5829 5829 5829 5828 5829 5829 5829 5830 5830 5831 5832 5832 5832 5832 5833 5833 5833 5833 5833 5832 5831 5829 5828 5828 5827 5826 5824 5823 5821 5820 5818 5817 5815 5814 5813 5811
5724 5729 5735 5740 5744 5748 5751 5752 5753 5755 5756 5759 5760 5761 5764 5765 5766 5768 5771 5774 5776 5779 5781 5783 5784 5786 5788 5789 5790 5791 5792 5793 5794 5795 5796 5797 5798 5800 5800 5801 5802 5803 5805 5807 5808 5809 5810 5811 5812 5813 5814 5816 5816 5817 5819 5820 5822 5823 5824 5825 5826 5826 5826 5827 5827 5827 5827 5828 5828 5829 5830 5831 5831 5830 5831 5831 5832 5832 5832 5831 5829 5828 5827 5827 5826 5825 5824 5822 5821 5819 5818 5817 5815 5814 5813 5811 5809
5722 5730 5735 5738 5742 5746 5748 5750 5751 5752 5755 5755 5756 5759 5761 5762 5763 5766 5769 5772 5774 5776 5779 5781 5782 5784 5785 5786 5788 5789 5790 5791 5792 5794 5794 5796 5797 5798 5799 5800 5800 5801 5803 5805 5806 5807 5809 5809 5810 5811 5813 5814 5815 5816 5817 5819 5820 5821 5822 5822 5823 5823 5824 5824 5825 5825 5826 5826 5827 5828 5829 5829 5829 5829 5830 5830 5830 5830 5830 5828 5827 5826 5826 5825 5824 5823 5822 5820 5819 5817 5816 5815 5814 5812 5811 5809 5807
5723 5730 5733 5736 5740 5743 5746 5747 5748 5750 5751 5752 5753 5756 5758 5759 5761 5764 5767 5769 5771 5774 5778 5780 5781 5782 5783 5784 5785 5787 5788 5789 5791 5792 5793 5794 5795 5796 5797 5798 5798 5800 5801 5803 5804 5805 5806 5807 5808 5809 5811 5812 5813 5814 5816 5817 5818 5819 5819 5819 5820 5821 5822 5822 5823 5824 5825 5825 5825 5826 5827 5827 5827 5828 5828 5829 5829 5828 5828 5827 5826 5825 5824 5823 5822 5820 5819 5818 5817 5815 5814 5813 5812 5811 5809 5807 5805
5724 5728 5730 5734 5737 5740 5743 5743 5745 5747 5746 5748 5751 5753 5754 5756 5758 5761 5764 5766 5769 5773 5775 5778 5779 5780 5780 5782 5783 5784 5786 5787 5789 5791 5791 5792 5792 5792 5793 5795 5796 5798 5799 5800 5802 5803 5804 5805 5806 5808 5809 5810 5812 5813 5814 5815 5816 5816 5817 5817 5818 5819 5820 5820 5821 5822 5823 5823 5824 5824 5825 5826 5826 5826 5827 5827 5827 5827 5826 5825 5824 5823 5822 5821 5819 5818 5817 5816 5815 5813 5812 5811 5810 5808 5806 5804 5802
5722 5724 5727 5731 5733 5737 5739 5740 5742 5742 5741 5745 5748 5749 5752 5754 5755 5759 5762 5765 5768 5770 5773 5775 5777 5778 5778 5780 5781 5783 5784 5786 5787 5788 5788 5788 5788 5788 5790 5792 5795 5797 5798 5799 5800 5801 5802 5803 5804 5806 5807 5808 5810 5811 5812 5812 5813 5814 5815 5816 5817 5818 5818 5819 5819 5820 5821 5822 5823 5823 5824 5824 5825 5825 5826 5826 5825 5825 5824 5823 5822 5821 5820 5819 5817 5816 5815 5814 5813 5812 5810 5809 5807 5806 5804 5802 5800
5717 5720 5724 5727 5730 5734 5735 5736 5737 5736 5738 5743 5745 5746 5748 5750 5753 5758 5761 5764 5766 5768 5770 5773 5775 5776 5777 5778 5780 5781 5782 5783 5785 5785 5786 5785 5785 5785 5787 5790 5793 5795 5796 5797 5798 5799 5800 5801 5803 5804 5805 5806 5807 5808 5810 5810 5811 5812 5813 5814 5815 5816 5817 5817 5818 5819 5820 5821 5821 5822 5822 5823 5823 5824 5824 5824 5824 5823 5822 5821 5820 5819 5818 5817 5815 5814 5814 5812 5811 5810 5808 5807 5805 5803 5801 5799 5797
5711 5715 5719 5722 5725 5728 5730 5731 5732 5732 5736 5741 5743 5744 5745 5746 5751 5756 5760 5762 5764 5766 5768 5770 5772 5774 5775 5777 5778 5779 5780 5781 5782 5783 5783 5782 5782 5783 5786 5789 5792 5793 5794 5795 5796 5797 5798 5799 5801 5802 5802 5803 5805 5806 5807 5808 5809 5810 5812 5812 5813 5814 5815 5816 5817 5818 5818 5819 5820 5820 5821 5821 5822 5823 5823 5823 5822 5822 5821 5819 5818 5817 5816 5815 5814 5813 5812 5810 5809 5807 5806 5804 5803 5801 5799 5797 5795
5705 5709 5712 5716 5719 5722 5724 5727 5729 5730 5735 5740 5742 5743 5743 5745 5749 5753 5758 5762 5763 5764 5766 5768 5770 5771 5773 5774 5776 5777 5778 5779 5779 5780 5780 5780 5780 5782 5785 5788 5790 5791 5792 5794 5795 5796 5797 5798 5799 5800 5801 5802 5803 5804 5806 5806 5807 5808 5810 5810 5811 5812 5813 5814 5815 5816 5817 5818 5819 5820 5820 5820 5821 5821 5822 5821 5820 5820 5819 5818 5817 5815 5814 5813 5812 5811 5810 5808 5807 5805 5804 5802 5801 5799 5797 5795 5792
5703 5706 5710 5713 5716 5719 5722 5725 5728 5730 5735 5739 5741 5741 5742 5745 5748 5752 5758 5761 5760 5761 5763 5765 5767 5768 5770 5772 5773 5775 5776 5777 5777 5778 5778 5779 5779 5781 5784 5787 5789 5790 5791 5792 5793 5794 5795 5796 5797 5798 5799 5800 5802 5803 5804 5805 5806 5807 5807 5808 5809 5810 5812 5813 5814 5815 5816 5817 5818 5818 5818 5819 5819 5820 5820 5819 5818 5818 5817 5816 5815 5813 5812 5812 5810 5809 5808 5806 5805 5803 5801 5800 5799 5797 5794 5792 5790
5702 5706 5708 5711 5715 5719 5722 5725 5727 5730 5734 5738 5739 5740 5742 5745 5748 5751 5755 5757 5758 5759 5761 5762 5765 5766 5768 5769 5771 5772 5773 5775 5776 5776 5777 5777 5778 5781 5783 5785 5787 5788 5789 5791 5792 5793 5794 5794 5795 5796 5798 5799 5800 5802 5803 5804 5804 5805 5805 5806 5808 5809 5810 5812 5813 5814 5815 5815 5816 5817 5817 5817 5818 5818 5818 5817 5817 5816 5815 5814 5813 5812 5811 5810 5808 5807 5805 5804 5802 5800 5799 5798 5796 5794 5792 5790 5788
5699 5702 5704 5709 5715 5718 5720 5723 5726 5729 5733 5735 5736 5739 5741 5743 5746 5749 5751 5754 5756 5758 5759 5761 5763 5765 5766 5767 5769 5770 5771 5773 5774 5775 5775 5776 5777 5779 5782 5783 5785 5786 5788 5789 5790 5791 5792 5792 5793 5795 5796 5797 5799 5800 5801 5802 5802 5803 5804 5805 5806 5808 5809 5811 5812 5813 5813 5814 5814 5815 5815 5816 5816 5816 5816 5816 5815 5814 5814 5813 5811 5810 5809 5808 5806 5805 5803 5801 5800 5798 5797 5796 5794 5791 5789 5787 5785
5696 5698 5703 5710 5714 5716 5717 5720 5723 5726 5730 5733 5735 5737 5739 5741 5744 5747 5749 5752 5754 5756 5757 5759 5762 5763 5764 5766 5767 5768 5769 5770 5772 5773 5773 5774 5776 5777 5779 5781 5783 5784 5786 5787 5788 5789 5789 5791 5792 5793 5794 5795 5797 5799 5800 5800 5801 5802 5802 5804 5805 5807 5808 5809 5810 5811 5812 5813 5813 5813 5814 5815 5815 5815 5815 5814 5813 5812 5812 5811 5810 5808 5807 5806 5804 5802 5801 5799 5798 5796 5795 5793 5791 5789 5787 5785 5783
5694 5699 5705 5709 5710 5711 5714 5716 5720 5723 5727 5730 5733 5735 5737 5739 5741 5744 5747 5750 5752 5754 5756 5758 5761 5763 5764 5765 5766 5767 5767 5768 5770 5771 5772 5773 5774 5776 5777 5779 5781 5782 5784 5785 5786 5787 5788 5789 5791 5792 5793 5794 5796 5798 5799 5800 5800 5800 5802 5803 5804 5806 5807 5808 5809 5810 5811 5811 5812 5813 5813 5814 5814 5814 5813 5813 5812 5811 5810 5809 5808 5807 5805 5804 5802 5800 5799 5797 5796 5794 5792 5790 5788 5786 5784 5782 5780
5691 5697 5703 5706 5707 5710 5713 5715 5718 5722 5724 5727 5730 5733 5735 5737 5739 5743 5746 5748 5750 5752 5754 5758 5760 5762 5762 5763 5765 5766 5767 5767 5768 5769 5770 5771 5773 5775 5776 5778 5779 5780 5782 5783 5785 5785 5787 5788 5789 5790 5792 5793 5795 5797 5798 5799 5799 5800 5801 5802 5803 5804 5805 5806 5807 5809 5809 5810 5811 5812 5812 5812 5812 5812 5812 5811 5810 5809 5808 5807 5806 5805 5803 5802 5800 5798 5797 5795 5793 5791 5790 5788 5786 5784 5782 5780 5778
5688 5692 5696 5701 5705 5709 5712 5714 5716 5720 5722 5725 5728 5730 5733 5736 5737 5740 5743 5746 5749 5751 5754 5756 5758 5759 5761 5762 5764 5765 5766 5766 5767 5768 5769 5771 5773 5773 5774 5775 5777 5778 5780 5782 5783 5784 5785 5787 5788 5789 5791 5793 5795 5796 5797 5798 5798 5799 5800 5801 5802 5803 5804 5805 5806 5807 5808 5808 5809 5810 5811 5811 5810 5810 5810 5809 5808 5807 5806 5805 5804 5802 5801 5800 5798 5797 5795 5792 5791 5789 5787 5785 5783 5781 5780 5778 5776
5688 5691 5694 5699 5703 5707 5709 5711 5714 5718 5721 5723 5725 5728 5731 5734 5735 5737 5741 5744 5747 5750 5752 5754 5755 5757 5759 5760 5762 5763 5764 5765 5766 5767 5769 5770 5771 5771 5772 5774 5775 5777 5778 5780 5781 5783 5784 5786 5787 5789 5791 5792 5794 5795 5796 5796 5797 5798 5799 5800 5801 5802 5802 5803 5804 5805 5806 5807 5808 5808 5809 5809 5808 5808 5808 5807 5806 5806 5804 5803 5801 5800 5799 5798 5796 5795 5792 5790 5788 5786 5784 5783 5781 5779 5777 5775 5774